Alaskan Explorer — WBD9918 — position and weather

sailwx.info

Track history (hours):
 
Tides and Currents Weather Stations Pressure Air Temp Water Temp Dewpoint Dewpoint Depression Visibility Wind Speed Wind Dir Waves Ship Positions

Alaskan Explorer

Last reported at 2014-Oct-01 01:33 UTC. Time now 2014-Oct-25 10:12 UTC.
Position N 01°15' E 104°05'.
Warning: this ship's position is 24 days out of date.

Length 288 m; draft 8.2 m.

Type: Ship. MMSI: 303294000.

Date/timePositionNaut miles runAvg speedWind from/ knotsBaromVisibWave heightAir tempDewpointWater temp
2014-Oct-01 01:33N 01°15' E 104°05'9 9.1
2014-Oct-01 00:33N 01°16' E 103°56'1 0.8
2014-Sep-30 23:32N 01°17' E 103°55'0 0.0
2014-Sep-30 22:32N 01°17' E 103°55'0 0.0
2014-Sep-30 21:32N 01°17' E 103°55'0 0.0
2014-Sep-30 20:32N 01°17' E 103°55'0 0.1
2014-Sep-30 19:32N 01°17' E 103°55'0 0.0
2014-Sep-30 18:32N 01°17' E 103°55'0 0.1
2014-Sep-30 17:32N 01°17' E 103°55'0 0.0
2014-Sep-30 16:32N 01°17' E 103°55'0 0.1
2014-Sep-30 15:32N 01°17' E 103°55'0 0.1
2014-Sep-30 14:32N 01°17' E 103°55'0 0.0
2014-Sep-30 13:32N 01°17' E 103°55'0 0.1
2014-Sep-30 12:32N 01°17' E 103°55'0 0.0
2014-Sep-30 11:32N 01°17' E 103°55'0 0.1
2014-Sep-30 10:32N 01°17' E 103°55'0 0.1
2014-Sep-30 09:32N 01°17' E 103°55'0 0.1
2014-Sep-30 08:32N 01°17' E 103°55'0 0.1
2014-Sep-30 07:32N 01°17' E 103°55'0 0.2
2014-Sep-30 06:20N 01°17' E 103°55'0 0.0
2014-Sep-30 05:32N 01°17' E 103°55'0 0.0
2014-Sep-30 04:32N 01°17' E 103°55'0 0.0
2014-Sep-30 03:32N 01°17' E 103°55'0 0.0
2014-Sep-30 02:32N 01°17' E 103°55'0 0.0
2014-Sep-30 01:32N 01°17' E 103°55'0 0.0
2014-Sep-30 00:32N 01°17' E 103°55'0 0.0
2014-Sep-29 23:29N 01°17' E 103°55'1 1.5
2014-Sep-29 22:33N 01°16' E 103°56'10 9.7
2014-Sep-29 21:33N 01°17' E 104°06'1 0.1
2014-Sep-29 09:31N 01°17' E 104°07'3 2.4
2014-Sep-29 08:23N 01°19' E 104°05'0 0.0
2014-Sep-29 07:28N 01°19' E 104°05'0 0.2
2014-Sep-29 06:33N 01°19' E 104°04'0 0.0
2014-Sep-29 05:32N 01°19' E 104°04'1 1.1
2014-Sep-29 04:33N 01°20' E 104°04'6 6.2
2014-Sep-29 03:32N 01°24' E 103°59'8 7.8
2014-Sep-29 02:33N 01°27' E 103°52'  
Track history (hours):
 
Tides and Currents Weather Stations Pressure Air Temp Water Temp Dewpoint Dewpoint Depression Visibility Wind Speed Wind Dir Waves Ship Positions

Alaskan Explorer

Last reported at 2014-Oct-01 01:33 UTC. Time now 2014-Oct-25 10:12 UTC.
Position N 01°15' E 104°05'.
Warning: this ship's position is 24 days out of date.

Length 288 m; draft 8.2 m.

Type: Ship. MMSI: 303294000.

Date/timePositionNaut miles runAvg speedWind from/ knotsBaromVisibWave heightAir tempDewpointWater temp
2014-Oct-01 01:33N 01°15' E 104°05'9 9.1
2014-Oct-01 00:33N 01°16' E 103°56'1 0.8
2014-Sep-30 23:32N 01°17' E 103°55'0 0.0
2014-Sep-30 22:32N 01°17' E 103°55'0 0.0
2014-Sep-30 21:32N 01°17' E 103°55'0 0.0
2014-Sep-30 20:32N 01°17' E 103°55'0 0.1
2014-Sep-30 19:32N 01°17' E 103°55'0 0.0
2014-Sep-30 18:32N 01°17' E 103°55'0 0.1
2014-Sep-30 17:32N 01°17' E 103°55'0 0.0
2014-Sep-30 16:32N 01°17' E 103°55'0 0.1
2014-Sep-30 15:32N 01°17' E 103°55'0 0.1
2014-Sep-30 14:32N 01°17' E 103°55'0 0.0
2014-Sep-30 13:32N 01°17' E 103°55'0 0.1
2014-Sep-30 12:32N 01°17' E 103°55'0 0.0
2014-Sep-30 11:32N 01°17' E 103°55'0 0.1
2014-Sep-30 10:32N 01°17' E 103°55'0 0.1
2014-Sep-30 09:32N 01°17' E 103°55'0 0.1
2014-Sep-30 08:32N 01°17' E 103°55'0 0.1
2014-Sep-30 07:32N 01°17' E 103°55'0 0.2
2014-Sep-30 06:20N 01°17' E 103°55'0 0.0
2014-Sep-30 05:32N 01°17' E 103°55'0 0.0
2014-Sep-30 04:32N 01°17' E 103°55'0 0.0
2014-Sep-30 03:32N 01°17' E 103°55'0 0.0
2014-Sep-30 02:32N 01°17' E 103°55'0 0.0
2014-Sep-30 01:32N 01°17' E 103°55'0 0.0
2014-Sep-30 00:32N 01°17' E 103°55'0 0.0
2014-Sep-29 23:29N 01°17' E 103°55'1 1.5
2014-Sep-29 22:33N 01°16' E 103°56'10 9.7
2014-Sep-29 21:33N 01°17' E 104°06'1 0.1
2014-Sep-29 09:31N 01°17' E 104°07'3 2.4
2014-Sep-29 08:23N 01°19' E 104°05'0 0.0
2014-Sep-29 07:28N 01°19' E 104°05'0 0.2
2014-Sep-29 06:33N 01°19' E 104°04'0 0.0
2014-Sep-29 05:32N 01°19' E 104°04'1 1.1
2014-Sep-29 04:33N 01°20' E 104°04'6 6.2
2014-Sep-29 03:32N 01°24' E 103°59'8 7.8
2014-Sep-29 02:33N 01°27' E 103°52'  

Dump ship's entire track history